ANZ686 NZDN-NZWN

Flight info

Callsign ANZ686
Flight time 0h 59m
Altitude 37000
Route BIDEL Y477 LADIS Y727 WARDS
Aircraft A320/M-SDE3FGHIRWY/LB1

Departure

Time 2026-05-05 04:58
Airport Dunedin International Airport (NZDN)

Arrival

Time 2026-05-05 05:57
Airport Wellington International Airport (NZWN)
Time Latitude Longitude Altitude Speed Heading
2026-05-05 04:19 -45.92483 170.19903 1 ft 0 kts 325°
2026-05-05 04:50 -45.92491 170.19911 0 ft 3 kts 324°
2026-05-05 04:50 -45.92510 170.19929 0 ft 3 kts 328°
2026-05-05 04:51 -45.92524 170.19940 0 ft 2 kts 315°
2026-05-05 04:51 -45.92536 170.19962 0 ft 3 kts 287°
2026-05-05 04:51 -45.92537 170.19989 0 ft 3 kts 238°
2026-05-05 04:51 -45.92525 170.20006 0 ft 3 kts 176°
2026-05-05 04:52 -45.92517 170.20005 2 ft 0 kts 146°
2026-05-05 04:55 -45.92524 170.20011 0 ft 4 kts 146°
2026-05-05 04:55 -45.92567 170.20052 0 ft 10 kts 146°
2026-05-05 04:55 -45.92639 170.20120 0 ft 14 kts 145°
2026-05-05 04:56 -45.92679 170.20239 0 ft 17 kts 67°
2026-05-05 04:56 -45.92611 170.20396 -2 ft 20 kts 57°
2026-05-05 04:56 -45.92525 170.20575 -3 ft 23 kts 56°
2026-05-05 04:56 -45.92448 170.20694 -2 ft 11 kts 30°
2026-05-05 04:57 -45.92431 170.20748 -1 ft 4 kts 169°
2026-05-05 04:57 -45.92461 170.20715 -2 ft 8 kts 238°
2026-05-05 04:57 -45.92575 170.20469 -2 ft 66 kts 236°
2026-05-05 04:57 -45.92970 170.19633 2 ft 132 kts 235°
2026-05-05 04:58 -45.93529 170.18450 387 ft 146 kts 235°
2026-05-05 04:58 -45.94101 170.17218 1018 ft 148 kts 235°
2026-05-05 04:58 -45.94677 170.15994 1690 ft 145 kts 237°
2026-05-05 04:58 -45.95221 170.14842 2211 ft 139 kts 238°
2026-05-05 04:59 -45.95785 170.13637 2371 ft 157 kts 239°
2026-05-05 04:59 -45.96437 170.12236 2487 ft 185 kts 239°
2026-05-05 04:59 -45.97211 170.10575 2682 ft 212 kts 238°
2026-05-05 04:59 -45.98060 170.08762 3199 ft 223 kts 239°
2026-05-05 05:00 -45.98932 170.06916 4011 ft 223 kts 240°
2026-05-05 05:00 -45.99806 170.05063 4875 ft 225 kts 240°
2026-05-05 05:00 -46.00904 170.03431 5658 ft 235 kts 212°
2026-05-05 05:00 -46.02524 170.02906 6423 ft 248 kts 177°
2026-05-05 05:01 -46.04149 170.03783 7105 ft 258 kts 141°
2026-05-05 05:01 -46.05189 170.05859 7796 ft 258 kts 107°
2026-05-05 05:01 -46.05755 170.08322 8567 ft 260 kts 104°
2026-05-05 05:01 -46.06298 170.10789 9312 ft 263 kts 104°
2026-05-05 05:02 -46.06855 170.13321 10079 ft 267 kts 104°
2026-05-05 05:02 -46.07420 170.15878 10777 ft 270 kts 104°
2026-05-05 05:02 -46.07936 170.18485 11485 ft 270 kts 95°
2026-05-05 05:02 -46.07992 170.21167 12198 ft 266 kts 77°
2026-05-05 05:03 -46.07527 170.23785 12589 ft 278 kts 60°
2026-05-05 05:03 -46.06548 170.26285 12813 ft 297 kts 53°
2026-05-05 05:03 -46.05426 170.28927 12991 ft 321 kts 54°
2026-05-05 05:03 -46.04227 170.31773 13142 ft 344 kts 54°
2026-05-05 05:04 -46.02958 170.34813 13357 ft 363 kts 55°
2026-05-05 05:04 -46.01653 170.37967 13923 ft 370 kts 55°
2026-05-05 05:04 -46.00357 170.41122 14530 ft 373 kts 55°
2026-05-05 05:04 -45.99032 170.44351 15128 ft 377 kts 55°
2026-05-05 05:05 -45.97690 170.47607 15702 ft 380 kts 54°
2026-05-05 05:05 -45.96329 170.50886 16243 ft 384 kts 54°
2026-05-05 05:05 -45.94947 170.54195 16817 ft 388 kts 54°
2026-05-05 05:05 -45.93552 170.57530 17417 ft 391 kts 54°
2026-05-05 05:06 -45.92078 170.60819 18008 ft 392 kts 48°
2026-05-05 05:06 -45.90290 170.63756 18624 ft 391 kts 41°
2026-05-05 05:06 -45.88400 170.66583 19175 ft 394 kts 41°
2026-05-05 05:06 -45.86492 170.69435 19738 ft 398 kts 41°
2026-05-05 05:07 -45.84565 170.72315 20304 ft 402 kts 42°
2026-05-05 05:07 -45.82626 170.75220 20852 ft 405 kts 42°
2026-05-05 05:07 -45.80696 170.78114 21356 ft 408 kts 43°
2026-05-05 05:07 -45.78701 170.81104 21854 ft 411 kts 43°
2026-05-05 05:08 -45.76743 170.84037 22343 ft 414 kts 43°
2026-05-05 05:08 -45.74748 170.87021 22819 ft 417 kts 43°
2026-05-05 05:08 -45.72732 170.90029 23275 ft 420 kts 43°
2026-05-05 05:08 -45.70626 170.92929 23728 ft 420 kts 37°
2026-05-05 05:09 -45.68240 170.95334 24124 ft 420 kts 28°
2026-05-05 05:09 -45.65608 170.97168 24475 ft 421 kts 19°
2026-05-05 05:09 -45.62854 170.98607 24824 ft 423 kts 18°
2026-05-05 05:09 -45.60084 171.00041 25185 ft 425 kts 18°
2026-05-05 05:10 -45.57297 171.01485 25533 ft 427 kts 18°
2026-05-05 05:10 -45.54530 171.02919 25866 ft 430 kts 18°
2026-05-05 05:10 -45.51715 171.04381 26206 ft 432 kts 18°
2026-05-05 05:10 -45.48876 171.05858 26544 ft 435 kts 18°
2026-05-05 05:11 -45.46029 171.07339 26883 ft 437 kts 18°
2026-05-05 05:11 -45.43157 171.08830 27209 ft 440 kts 18°
2026-05-05 05:11 -45.40325 171.10523 27529 ft 444 kts 26°
2026-05-05 05:11 -45.37639 171.12724 27856 ft 447 kts 29°
2026-05-05 05:12 -45.34961 171.15004 28186 ft 450 kts 29°
2026-05-05 05:12 -45.32269 171.17295 28505 ft 452 kts 29°
2026-05-05 05:12 -45.29567 171.19593 28813 ft 454 kts 29°
2026-05-05 05:12 -45.26885 171.21868 29111 ft 456 kts 29°
2026-05-05 05:13 -45.24160 171.24177 29511 ft 456 kts 29°
2026-05-05 05:13 -45.21437 171.26486 29961 ft 455 kts 30°
2026-05-05 05:13 -45.18720 171.28791 30398 ft 455 kts 30°
2026-05-05 05:13 -45.16007 171.31087 30767 ft 455 kts 30°
2026-05-05 05:14 -45.13290 171.33381 31121 ft 455 kts 30°
2026-05-05 05:14 -45.10566 171.35673 31473 ft 455 kts 29°
2026-05-05 05:14 -45.07845 171.37955 31826 ft 455 kts 29°
2026-05-05 05:14 -45.05124 171.40241 32186 ft 455 kts 30°
2026-05-05 05:15 -45.02396 171.42530 32549 ft 456 kts 29°
2026-05-05 05:15 -44.99669 171.44813 32909 ft 456 kts 29°
2026-05-05 05:15 -44.96972 171.47069 33271 ft 456 kts 30°
2026-05-05 05:15 -44.94242 171.49354 33642 ft 456 kts 30°
2026-05-05 05:16 -44.91515 171.51635 34016 ft 456 kts 30°
2026-05-05 05:16 -44.88786 171.53914 34388 ft 456 kts 30°
2026-05-05 05:16 -44.86057 171.56196 34720 ft 456 kts 30°
2026-05-05 05:16 -44.83333 171.58470 35059 ft 455 kts 30°
2026-05-05 05:17 -44.80604 171.60747 35390 ft 455 kts 30°
2026-05-05 05:17 -44.77882 171.63011 35711 ft 454 kts 29°
2026-05-05 05:17 -44.75166 171.65264 36007 ft 454 kts 30°
2026-05-05 05:17 -44.72438 171.67518 36297 ft 454 kts 29°
2026-05-05 05:18 -44.69754 171.69733 36588 ft 454 kts 29°
2026-05-05 05:18 -44.67032 171.71985 36870 ft 454 kts 29°
2026-05-05 05:18 -44.64317 171.74230 37150 ft 453 kts 29°
2026-05-05 05:18 -44.61594 171.76484 37312 ft 454 kts 29°
2026-05-05 05:19 -44.58865 171.78744 37346 ft 456 kts 29°
2026-05-05 05:19 -44.53386 171.83257 37343 ft 457 kts 29°
2026-05-05 05:20 -44.47899 171.87765 37342 ft 457 kts 29°
2026-05-05 05:20 -44.42443 171.92233 37341 ft 457 kts 29°
2026-05-05 05:21 -44.36955 171.96723 37347 ft 457 kts 29°
2026-05-05 05:21 -44.31461 172.01202 37341 ft 457 kts 29°
2026-05-05 05:22 -44.25961 172.05669 37351 ft 458 kts 29°
2026-05-05 05:22 -44.20453 172.10150 37346 ft 458 kts 30°
2026-05-05 05:23 -44.14944 172.14628 37342 ft 459 kts 29°
2026-05-05 05:23 -44.09487 172.19141 37349 ft 460 kts 31°
2026-05-05 05:24 -44.04147 172.24037 37355 ft 460 kts 33°
2026-05-05 05:24 -43.98852 172.29042 37357 ft 460 kts 33°
2026-05-05 05:25 -43.93518 172.33964 37354 ft 460 kts 33°
2026-05-05 05:25 -43.88154 172.38825 37363 ft 461 kts 32°
2026-05-05 05:26 -43.82822 172.43644 37365 ft 461 kts 33°
2026-05-05 05:26 -43.77449 172.48497 37353 ft 461 kts 33°
2026-05-05 05:27 -43.72074 172.53365 37365 ft 462 kts 33°
2026-05-05 05:27 -43.64008 172.60653 37373 ft 462 kts 33°
2026-05-05 05:28 -43.58624 172.65493 37370 ft 462 kts 33°
2026-05-05 05:28 -43.53235 172.70319 37378 ft 462 kts 33°
2026-05-05 05:29 -43.47882 172.75097 37376 ft 461 kts 33°
2026-05-05 05:29 -43.42495 172.79905 37374 ft 461 kts 33°
2026-05-05 05:30 -43.37109 172.84704 37371 ft 461 kts 33°
2026-05-05 05:30 -43.31726 172.89499 37369 ft 461 kts 33°
2026-05-05 05:31 -43.26349 172.94279 37362 ft 461 kts 33°
2026-05-05 05:31 -43.21000 172.99021 37359 ft 461 kts 32°
2026-05-05 05:32 -43.15613 173.03777 37363 ft 461 kts 32°
2026-05-05 05:32 -43.10221 173.08521 37363 ft 461 kts 32°
2026-05-05 05:33 -43.04833 173.13257 37362 ft 461 kts 32°
2026-05-05 05:33 -42.99447 173.17992 37363 ft 460 kts 32°
2026-05-05 05:34 -42.94059 173.22725 37362 ft 460 kts 32°
2026-05-05 05:34 -42.88668 173.27446 37362 ft 460 kts 32°
2026-05-05 05:35 -42.83269 173.32144 37362 ft 460 kts 32°
2026-05-05 05:35 -42.77902 173.36802 37346 ft 460 kts 32°
2026-05-05 05:36 -42.72504 173.41496 37351 ft 461 kts 32°
2026-05-05 05:36 -42.67098 173.46179 37354 ft 461 kts 32°
2026-05-05 05:37 -42.64393 173.48521 37140 ft 461 kts 32°
2026-05-05 05:37 -42.61693 173.50857 36856 ft 460 kts 32°
2026-05-05 05:37 -42.58992 173.53192 36141 ft 462 kts 33°
2026-05-05 05:37 -42.57190 173.54749 35627 ft 463 kts 32°
2026-05-05 05:38 -42.54467 173.57096 34854 ft 465 kts 33°
2026-05-05 05:38 -42.51727 173.59454 33955 ft 468 kts 33°
2026-05-05 05:38 -42.48971 173.61826 33002 ft 470 kts 33°
2026-05-05 05:38 -42.46214 173.64200 32064 ft 470 kts 32°
2026-05-05 05:39 -42.43447 173.66580 31095 ft 471 kts 32°
2026-05-05 05:39 -42.40669 173.68966 29979 ft 473 kts 32°
2026-05-05 05:39 -42.37924 173.71318 28866 ft 470 kts 32°
2026-05-05 05:39 -42.35204 173.73645 27766 ft 456 kts 32°
2026-05-05 05:40 -42.32525 173.75934 26832 ft 441 kts 32°
2026-05-05 05:40 -42.30025 173.78069 26225 ft 422 kts 32°
2026-05-05 05:40 -42.27572 173.80160 25544 ft 417 kts 32°
2026-05-05 05:40 -42.25107 173.82261 24856 ft 418 kts 32°
2026-05-05 05:41 -42.22650 173.84351 24173 ft 417 kts 32°
2026-05-05 05:41 -42.20205 173.86432 23426 ft 415 kts 32°
2026-05-05 05:41 -42.17775 173.88499 22748 ft 410 kts 32°
2026-05-05 05:41 -42.15368 173.90545 22078 ft 407 kts 32°
2026-05-05 05:42 -42.12984 173.92570 21420 ft 404 kts 32°
2026-05-05 05:42 -42.10616 173.94578 20782 ft 401 kts 32°
2026-05-05 05:42 -42.08256 173.96573 20141 ft 400 kts 32°
2026-05-05 05:42 -42.05907 173.98557 19528 ft 398 kts 32°
2026-05-05 05:43 -42.03596 174.00507 18947 ft 396 kts 31°
2026-05-05 05:43 -42.01265 174.02477 18325 ft 394 kts 31°
2026-05-05 05:43 -41.98949 174.04430 17742 ft 391 kts 31°
2026-05-05 05:43 -41.96651 174.06369 17176 ft 387 kts 31°
2026-05-05 05:44 -41.94384 174.08286 16620 ft 384 kts 31°
2026-05-05 05:44 -41.92134 174.10188 16052 ft 380 kts 31°
2026-05-05 05:44 -41.89907 174.12068 15480 ft 377 kts 31°
2026-05-05 05:44 -41.87693 174.13927 14902 ft 374 kts 31°
2026-05-05 05:45 -41.85495 174.15767 14307 ft 371 kts 30°
2026-05-05 05:45 -41.83323 174.17620 13638 ft 369 kts 32°
2026-05-05 05:45 -41.81216 174.19556 13021 ft 365 kts 33°
2026-05-05 05:45 -41.79189 174.21515 12406 ft 362 kts 34°
2026-05-05 05:46 -41.77169 174.23506 11779 ft 359 kts 34°
2026-05-05 05:46 -41.75165 174.25479 11255 ft 354 kts 34°
2026-05-05 05:46 -41.73258 174.27438 11123 ft 338 kts 40°
2026-05-05 05:46 -41.71620 174.29610 11010 ft 324 kts 43°
2026-05-05 05:47 -41.70063 174.31710 10887 ft 312 kts 43°
2026-05-05 05:47 -41.68564 174.33717 10725 ft 296 kts 42°
2026-05-05 05:47 -41.67127 174.35635 10222 ft 288 kts 43°
2026-05-05 05:47 -41.65724 174.37503 9742 ft 280 kts 43°
2026-05-05 05:48 -41.64349 174.39329 9620 ft 279 kts 42°
2026-05-05 05:48 -41.62962 174.41166 9500 ft 281 kts 42°
2026-05-05 05:48 -41.61573 174.43005 9285 ft 281 kts 42°
2026-05-05 05:48 -41.60178 174.44854 8840 ft 283 kts 41°
2026-05-05 05:49 -41.58789 174.46699 8443 ft 283 kts 42°
2026-05-05 05:49 -41.57415 174.48524 8166 ft 279 kts 41°
2026-05-05 05:49 -41.56043 174.50349 7837 ft 278 kts 41°
2026-05-05 05:49 -41.54678 174.52159 7525 ft 276 kts 41°
2026-05-05 05:50 -41.53318 174.53955 7210 ft 274 kts 41°
2026-05-05 05:50 -41.51979 174.55724 7047 ft 266 kts 41°
2026-05-05 05:50 -41.50691 174.57436 6930 ft 257 kts 42°
2026-05-05 05:50 -41.49635 174.59315 6807 ft 254 kts 60°
2026-05-05 05:51 -41.49179 174.61572 6644 ft 254 kts 83°
2026-05-05 05:51 -41.49234 174.63919 6346 ft 254 kts 89°
2026-05-05 05:51 -41.49331 174.66275 5984 ft 255 kts 87°
2026-05-05 05:51 -41.49425 174.68636 5586 ft 253 kts 90°
2026-05-05 05:52 -41.49519 174.70972 5065 ft 252 kts 90°
2026-05-05 05:52 -41.49610 174.73306 4469 ft 254 kts 88°
2026-05-05 05:52 -41.49700 174.75688 3821 ft 258 kts 89°
2026-05-05 05:52 -41.49517 174.77999 3342 ft 243 kts 59°
2026-05-05 05:53 -41.48475 174.79523 3029 ft 213 kts 18°
2026-05-05 05:53 -41.47114 174.79834 2716 ft 188 kts 356°
2026-05-05 05:53 -41.45856 174.79891 2546 ft 173 kts 356°
2026-05-05 05:53 -41.44694 174.79956 2267 ft 161 kts 355°
2026-05-05 05:54 -41.43621 174.80016 2016 ft 148 kts 357°
2026-05-05 05:54 -41.42644 174.80072 1831 ft 131 kts 357°
2026-05-05 05:54 -41.41755 174.80123 1661 ft 129 kts 358°
2026-05-05 05:54 -41.40859 174.80175 1486 ft 128 kts 359°
2026-05-05 05:55 -41.39962 174.80226 1316 ft 130 kts
2026-05-05 05:55 -41.39046 174.80278 1156 ft 131 kts
2026-05-05 05:55 -41.38123 174.80335 968 ft 130 kts
2026-05-05 05:55 -41.37223 174.80391 801 ft 131 kts
2026-05-05 05:56 -41.36306 174.80447 616 ft 130 kts
2026-05-05 05:56 -41.35396 174.80486 423 ft 130 kts
2026-05-05 05:56 -41.34502 174.80541 290 ft 131 kts
2026-05-05 05:56 -41.33594 174.80625 94 ft 131 kts
2026-05-05 05:57 -41.32755 174.80685 28 ft 105 kts
2026-05-05 05:57 -41.32293 174.80722 39 ft 19 kts 360°
2026-05-05 05:57 -41.32179 174.80741 44 ft 12 kts 54°
2026-05-05 05:57 -41.32193 174.80845 42 ft 14 kts 152°
2026-05-05 05:58 -41.32308 174.80842 38 ft 19 kts 182°
2026-05-05 05:58 -41.32452 174.80833 33 ft 20 kts 183°
2026-05-05 05:58 -41.32596 174.80823 28 ft 19 kts 183°
2026-05-05 05:58 -41.32692 174.80817 26 ft 13 kts 182°
2026-05-05 05:59 -41.32794 174.80811 26 ft 16 kts 182°
2026-05-05 05:59 -41.32918 174.80801 26 ft 19 kts 183°
2026-05-05 05:59 -41.33028 174.80794 26 ft 17 kts 183°
2026-05-05 05:59 -41.33103 174.80830 26 ft 11 kts 107°
2026-05-05 06:00 -41.33107 174.80934 26 ft 8 kts 93°
2026-05-05 06:00 -41.33103 174.80982 26 ft 5 kts 30°
2026-05-05 06:00 -41.33070 174.80989 26 ft 3 kts
2026-05-05 06:00 -41.33062 174.80991 26 ft 0 kts 10°